カタログに戻る

STARLINK-35231

運用中通信VLEO
NORAD 65849·PAYLOAD·🇺🇸 United States

打ち上げ Sep 29, 2025 から Vandenberg Space Force Base

Loading…

次のパス (今後24時間)

TLE

最新Source: CelesTrak SupGP

元期: Sep 14, 2026, 22:39 UTC

1 65849C 25221AC  26257.94423611  .00050460  00000+0  14903-2 0  2576
2 65849  53.1585 287.4317 0000987  87.4186 325.3870 15.34376571    12

AllMySatでSTARLINK-35231をリアルタイム追跡

Download on the App Store